[[{"header":{"parameterUnit":"m.s-1","parameterCategory":1,"la1":30.2992,"la2":30.254,"lo1":-89.0895,"lo2":-89.0443,"dy":0.0025,"dx":0.0025,"nx":19,"ny":19,"refTime":"2026-04-28T09:00:00:Z","depth":0,"parameterNumber":2,"parameterNumberName":"U-component_of_WINDS"},"data":[0,0,0,-1.636,-1.636,-1.6382,-1.6382,-1.6411,-1.6412,0,0,0,0,0,0,0,0,0,0,0,-1.6353,-1.6354,-1.6359,-1.636,-1.6382,-1.6382,-1.6411,-1.6412,0,0,0,0,0,0,0,0,0,0,0,-1.6353,-1.6354,-1.6354,-1.636,-1.6382,-1.6382,-1.6411,-1.6394,0,0,0,0,0,0,0,0,0,0,-1.6373,-1.6367,-1.6353,-1.6354,-1.636,-1.6382,-1.6382,-1.6394,-1.6395,-1.6402,0,-1.6407,0,-1.641,-1.6414,-1.6414,0,0,0,-1.636,-1.6366,-1.6371,-1.6354,-1.636,-1.6382,-1.6372,-1.6395,-1.6397,-1.6405,-1.6408,-1.6409,-1.6411,-1.6414,-1.6414,-1.6453,-1.6453,0,0,-1.6359,-1.6357,-1.637,-1.6373,-1.6369,-1.6371,-1.6373,-1.6396,-1.6399,-1.6408,-1.641,-1.6411,-1.6414,-1.6414,-1.6452,-1.6453,0,0,0,-1.6355,-1.6357,-1.6362,-1.6372,-1.6375,-1.6372,-1.6373,-1.6398,-1.64,-1.641,-1.6411,-1.6414,-1.6415,-1.6452,-1.6452,-1.646,0,0,0,-1.6355,-1.6355,-1.6361,-1.6361,-1.6375,-1.6387,-1.6375,-1.6399,-1.6401,-1.6411,-1.6414,-1.6415,-1.6452,-1.6452,-1.6459,-1.6463,0,0,0,-1.6352,-1.6354,-1.6358,-1.636,-1.637,-1.6387,-1.639,-1.6399,-1.6402,-1.6414,-1.6415,-1.6452,-1.6452,-1.6459,-1.6462,-1.6473,0,0,0,-1.6349,-1.6363,-1.6358,-1.6375,-1.637,-1.6391,-1.639,-1.6406,-1.6417,-1.6414,-1.6452,-1.6452,-1.6458,-1.6462,-1.6472,-1.648,-1.6484,0,0,-1.6367,-1.6366,-1.6376,-1.6372,-1.6394,-1.6388,-1.6412,-1.6423,-1.6426,-1.6444,-1.6445,-1.6459,-1.6462,-1.6473,-1.6507,-1.651,0,0,0,-1.6382,-1.6389,-1.6395,-1.6406,-1.6415,-1.6424,-1.6432,-1.6437,-1.6452,-1.6435,-1.6467,-1.6468,-1.6475,-1.6479,-1.6481,-1.6486,-1.6455,-1.6455,-1.6454,-1.6404,-1.6407,-1.6425,-1.6431,-1.6442,-1.6451,-1.646,-1.6468,-1.6467,-1.6475,-1.648,-1.65,-1.6505,-1.6507,-1.6512,-1.6486,-1.6486,-1.6486,-1.6486,-1.643,-1.6441,-1.6442,-1.6459,-1.6463,-1.6478,-1.6489,-1.6489,-1.6504,-1.6497,-1.6502,-1.6493,-1.651,-1.6515,-1.6486,-1.6486,-1.6486,-1.6486,-1.6486,-1.6444,-1.645,-1.6456,-1.6472,-1.6485,-1.6492,-1.6507,-1.651,-1.6513,-1.6519,-1.6525,-1.6524,-1.6524,-1.6522,-1.6522,-1.6522,-1.6522,-1.6522,-1.6522,-1.6455,-1.6462,-1.6473,-1.6487,-1.6495,-1.6506,-1.6517,-1.6525,-1.6536,-1.6537,-1.6537,-1.6536,-1.6511,-1.6504,-1.6523,-1.6523,-1.6523,-1.6523,-1.6523,-1.6478,-1.6474,-1.6492,-1.65,-1.6517,-1.653,-1.6535,-1.6552,-1.6559,-1.6567,-1.6566,-1.6548,-1.6546,-1.6545,-1.6539,-1.6565,-1.6565,-1.6565,-1.6565,-1.6489,-1.6489,-1.6509,-1.6522,-1.6536,-1.6543,-1.6564,-1.6575,-1.6584,-1.6589,-1.6587,-1.658,-1.6578,-1.6578,-1.6575,-1.657,-1.6604,-1.6604,-1.6604,-1.6503,-1.6505,-1.6522,-1.6531,-1.6545,-1.6558,-1.6578,-1.6594,-1.6604,-1.6606,-1.6594,-1.6592,-1.6581,-1.6578,-1.6576,-1.6572,-1.6562,0,0]},{"header":{"parameterUnit":"m.s-1","parameterCategory":1,"la1":30.2992,"la2":30.254,"lo1":-89.0895,"lo2":-89.0443,"dy":0.0025,"dx":0.0025,"nx":19,"ny":19,"refTime":"2026-04-28T09:00:00:Z","depth":0,"parameterNumber":3,"parameterNumberName":"V-component_of_WINDS"},"data":[0,0,0,4.1787,4.1788,4.184,4.184,4.1902,4.1902,0,0,0,0,0,0,0,0,0,0,0,4.177,4.177,4.1787,4.1788,4.184,4.184,4.1901,4.1902,0,0,0,0,0,0,0,0,0,0,0,4.177,4.177,4.1771,4.1788,4.184,4.184,4.1901,4.1864,0,0,0,0,0,0,0,0,0,0,4.1814,4.1797,4.177,4.1771,4.1788,4.184,4.184,4.1862,4.1866,4.1877,0,4.1887,0,4.1896,4.1906,4.1906,0,0,0,4.1789,4.1794,4.1809,4.1771,4.1789,4.184,4.1817,4.1864,4.1869,4.1882,4.1888,4.189,4.1897,4.1906,4.1907,4.197,4.197,0,0,4.1786,4.1778,4.1806,4.1812,4.1806,4.1815,4.1818,4.1867,4.1872,4.1888,4.1892,4.1898,4.1907,4.1907,4.1969,4.197,0,0,0,4.1777,4.1776,4.179,4.181,4.1819,4.1816,4.182,4.187,4.1875,4.1892,4.1898,4.1907,4.1908,4.1969,4.197,4.1977,0,0,0,4.1775,4.1771,4.1789,4.1785,4.1819,4.1846,4.1822,4.1872,4.1878,4.1898,4.1907,4.1908,4.1969,4.1969,4.1976,4.1982,0,0,0,4.1767,4.177,4.1777,4.1785,4.1807,4.1845,4.1853,4.1874,4.1881,4.1906,4.1909,4.1969,4.1969,4.1975,4.198,4.1997,0,0,0,4.1756,4.1782,4.1777,4.1809,4.1806,4.1849,4.1853,4.1885,4.1907,4.1907,4.1969,4.1969,4.1975,4.198,4.1996,4.2011,4.2016,0,0,4.1784,4.1785,4.1804,4.1801,4.1844,4.1842,4.1885,4.1911,4.1919,4.1952,4.1954,4.1976,4.198,4.1997,4.2045,4.2049,0,0,0,4.181,4.1824,4.1837,4.1859,4.188,4.1899,4.192,4.193,4.1958,4.1935,4.1986,4.1989,4.1999,4.2006,4.201,4.2019,4.1972,4.1972,4.1972,4.1841,4.1851,4.1884,4.19,4.1921,4.1943,4.196,4.1977,4.198,4.1992,4.2002,4.203,4.2038,4.2041,4.2051,4.2009,4.2009,4.2009,4.2009,4.1885,4.1907,4.1911,4.1945,4.1955,4.1982,4.2004,4.2005,4.2032,4.2023,4.2032,4.2023,4.2045,4.2054,4.201,4.201,4.201,4.201,4.201,4.1907,4.192,4.1932,4.1965,4.1988,4.2003,4.2029,4.2037,4.2044,4.2053,4.2065,4.2065,4.2067,4.2058,4.2058,4.2058,4.2058,4.2058,4.2058,4.1927,4.194,4.1962,4.1987,4.2003,4.2023,4.2045,4.2059,4.2077,4.2081,4.2081,4.2084,4.2045,4.2036,4.206,4.206,4.2059,4.2059,4.2059,4.197,4.1962,4.1996,4.2011,4.2042,4.2065,4.2074,4.2103,4.2116,4.2129,4.2129,4.2099,4.2099,4.2097,4.2089,4.2126,4.2126,4.2126,4.2126,4.1991,4.1992,4.2029,4.2053,4.2077,4.2089,4.2126,4.2142,4.2158,4.2166,4.2162,4.2152,4.2149,4.2152,4.2148,4.2141,4.219,4.219,4.219,4.2019,4.2023,4.2054,4.207,4.2095,4.2115,4.2151,4.2177,4.2192,4.2193,4.2173,4.2171,4.2155,4.2149,4.2151,4.2145,4.2133,0,0]}]]